Weather History for KAFP - May, 2013

Change the Weather History Date:

Tuesday, May 28, 2013

  Actual Average (KCLT) Record (KCLT)
Temperature  
Mean Temperature 73 °F 71 °F  
Max Temperature 84 °F 82 °F 97 °F (1941)
Min Temperature 62 °F 60 °F 42 °F (1961)
Degree Days  
Heating Degree Days 0 1  
Month to date heating degree days 52  
Since 1 July heating degree days 3384  
Cooling Degree Days 8 6  
Month to date cooling degree days 105  
Year to date cooling degree days 142  
Growing Degree Days 23 (Base 50)    
Moisture  
Dew Point 62 °F    
Average Humidity 68    
Maximum Humidity 96    
Minimum Humidity 45    
Precipitation  
Precipitation 0.00 in 0.12 in 2.70 in (1990)
Month to date precipitation 2.83  
Year to date precipitation 16.61  
Snow  
Snow 0.00 in 0.00 in 0.00 in ()
Month to date snowfall 0.0  
Since 1 July snowfall 4.3  
Snow Depth -    
Sea Level Pressure  
Sea Level Pressure 30.21 in    
Wind  
Wind Speed 4 mph (SSE)    
Max Wind Speed 10 mph    
Max Gust Speed -    
Visibility 10 miles    
Events      
T = Trace of Precipitation, MM = Missing Value Source: NWS Daily Summary

Daily Weather History Graph

Daily Weather History Graph

Search for Another Location

Airport or City:

Trip Planner

Search our weather history database for the weather conditions in past years. The results will help you decide how hot, cold, wet, or windy it might be!

Date:

Astronomy

May. 28, 2013 Rise Set
Actual Time 6:08 AM EDT 8:26 PM EDT
Civil Twilight 5:39 AM EDT 8:55 PM EDT
Nautical Twilight 5:04 AM EDT 9:31 PM EDT
Astronomical Twilight 4:25 AM EDT 10:10 PM EDT
Moon 11:54 PM EDT (5/28) 9:51 AM EDT (5/28)
Length of Visible Light 15h 15m
Length of Day
14h 17m
Waning Gibbous, 83% of the Moon is Illuminated
May 28
Waning Gibbous
May 31
Last Quarter
Jun 8
New
Jun 16
First Quarter
Jun 23
Full

Hourly Weather History & Observations

Time (EDT) Temp. Heat Index Dew Point Humidity Pressure Visibility Wind Dir Wind Speed Gust Speed Precip Events Conditions
12:15 AM 68.4 °F - 63.0 °F 83% 30.21 in 10.0 mi SSE 4.6 mph - N/A   Clear
12:35 AM 67.8 °F - 62.8 °F 84% 30.21 in 10.0 mi SSE 4.6 mph - N/A   Clear
12:55 AM 67.1 °F - 62.6 °F 85% 30.21 in 10.0 mi SSE 3.5 mph - N/A   Clear
1:15 AM 66.9 °F - 62.6 °F 86% 30.21 in 10.0 mi SSE 3.5 mph - N/A   Clear
1:35 AM 66.2 °F - 62.6 °F 88% 30.21 in 10.0 mi SE 3.5 mph - N/A   Clear
1:55 AM 65.5 °F - 62.2 °F 89% 30.21 in 10.0 mi Calm Calm - N/A   Clear
2:15 AM 65.1 °F - 62.1 °F 90% 30.21 in 10.0 mi SSE 4.6 mph - N/A   Clear
2:35 AM 64.9 °F - 62.2 °F 91% 30.20 in 10.0 mi SSE 4.6 mph - N/A   Clear
2:55 AM 65.3 °F - 62.2 °F 90% 30.20 in 10.0 mi SSE 4.6 mph - N/A   Clear
3:15 AM 65.5 °F - 62.2 °F 89% 30.19 in 10.0 mi SSE 4.6 mph - N/A   Clear
3:35 AM 65.8 °F - 62.1 °F 88% 30.19 in 10.0 mi South 4.6 mph - N/A   Clear
3:55 AM 65.5 °F - 61.7 °F 88% 30.19 in 10.0 mi South 4.6 mph - N/A   Clear
4:15 AM 65.5 °F - 61.7 °F 88% 30.19 in 10.0 mi SSE 4.6 mph - N/A   Clear
4:35 AM 65.3 °F - 61.7 °F 88% 30.19 in 10.0 mi SSE 4.6 mph - N/A   Clear
4:55 AM 64.8 °F - 61.7 °F 90% 30.19 in 10.0 mi South 3.5 mph - N/A   Clear
5:15 AM 64.9 °F - 61.7 °F 89% 30.19 in 10.0 mi SSE 6.9 mph - N/A   Clear
5:35 AM 64.9 °F - 61.3 °F 88% 30.20 in 10.0 mi Calm Calm - N/A   Clear
5:55 AM 64.8 °F - 61.3 °F 89% 30.21 in 10.0 mi Calm Calm - N/A   Clear
6:15 AM 64.4 °F - 61.2 °F 89% 30.21 in 10.0 mi Calm Calm - N/A   Clear
6:35 AM 62.4 °F - 59.9 °F 91% 30.22 in 10.0 mi Calm Calm - N/A   Clear
6:55 AM 62.1 °F - 60.4 °F 94% 30.22 in 7.0 mi SE 3.5 mph - N/A   Clear
7:15 AM 63.9 °F - 62.6 °F 96% 30.23 in 10.0 mi Calm Calm - N/A   Clear
7:35 AM 66.4 °F - 63.0 °F 89% 30.22 in 10.0 mi Calm Calm - N/A   Clear
7:55 AM 67.8 °F - 62.6 °F 83% 30.24 in 10.0 mi Calm Calm - N/A   Clear
8:15 AM 68.7 °F - 63.1 °F 82% 30.24 in 10.0 mi Calm Calm - N/A   Clear
8:35 AM 69.8 °F - 63.5 °F 80% 30.24 in 10.0 mi SW 3.5 mph - N/A   Clear
8:55 AM 71.2 °F - 63.5 °F 76% 30.25 in 10.0 mi SW 3.5 mph - N/A   Clear
9:15 AM 72.5 °F - 63.5 °F 73% 30.25 in 10.0 mi Calm Calm - N/A   Clear
9:35 AM 73.2 °F - 63.5 °F 71% 30.26 in 10.0 mi SW 4.6 mph - N/A   Clear
9:55 AM 74.7 °F - 63.7 °F 69% 30.25 in 10.0 mi WSW 3.5 mph - N/A   Clear
10:15 AM 75.4 °F - 63.5 °F 66% 30.25 in 10.0 mi Calm Calm - N/A   Clear
10:35 AM 76.8 °F - 63.0 °F 62% 30.26 in 10.0 mi SW 5.8 mph - N/A   Clear
10:55 AM 77.4 °F - 62.1 °F 59% 30.26 in 10.0 mi Calm Calm - N/A   Scattered Clouds
11:15 AM 78.3 °F - 61.0 °F 55% 30.26 in 10.0 mi SW 5.8 mph - N/A   Clear
11:35 AM 78.8 °F - 60.6 °F 54% 30.26 in 10.0 mi Calm Calm - N/A   Clear
11:55 AM 80.1 °F 81.1 °F 61.7 °F 53% 30.26 in 10.0 mi West 3.5 mph - N/A   Clear
12:15 PM 80.6 °F 81.6 °F 61.5 °F 52% 30.25 in 10.0 mi Calm Calm - N/A   Clear
12:35 PM 81.1 °F 82.3 °F 62.8 °F 53% 30.25 in 10.0 mi South 4.6 mph - N/A   Clear
12:55 PM 80.1 °F 81.1 °F 61.7 °F 53% 30.24 in 10.0 mi SSE 5.8 mph - N/A   Scattered Clouds
1:15 PM 81.7 °F 82.9 °F 62.8 °F 53% 30.23 in 10.0 mi SSE 5.8 mph - N/A   Scattered Clouds
1:35 PM 82.0 °F 83.1 °F 63.0 °F 52% 30.23 in 10.0 mi South 3.5 mph - N/A   Scattered Clouds
1:55 PM 82.9 °F 84.2 °F 63.5 °F 52% 30.22 in 10.0 mi SSE 8.1 mph - N/A   Scattered Clouds
2:15 PM 82.8 °F 83.6 °F 62.2 °F 50% 30.21 in 10.0 mi South 6.9 mph - N/A   Scattered Clouds
2:35 PM 83.7 °F 84.1 °F 61.5 °F 47% 30.21 in 10.0 mi South 8.1 mph - N/A   Scattered Clouds
2:55 PM 83.5 °F 84.1 °F 61.9 °F 48% 30.19 in 10.0 mi SSE 6.9 mph - N/A   Mostly Cloudy
3:15 PM 83.3 °F 84.1 °F 62.2 °F 49% 30.19 in 10.0 mi SSE 6.9 mph - N/A   Scattered Clouds
3:35 PM 83.5 °F 84.5 °F 63.0 °F 50% 30.19 in 10.0 mi SE 6.9 mph - N/A   Scattered Clouds
3:55 PM 82.4 °F 83.2 °F 62.1 °F 50% 30.18 in 10.0 mi SSE 5.8 mph - N/A   Mostly Cloudy
4:15 PM 84.2 °F 85.0 °F 62.8 °F 48% 30.18 in 10.0 mi SE 10.4 mph - N/A   Scattered Clouds
4:35 PM 82.9 °F 83.5 °F 61.2 °F 48% 30.17 in 10.0 mi SE 6.9 mph - N/A   Mostly Cloudy
4:55 PM 84.2 °F 85.0 °F 62.4 °F 48% 30.17 in 10.0 mi SE 6.9 mph - N/A   Scattered Clouds
5:15 PM 84.2 °F 84.8 °F 62.1 °F 47% 30.17 in 10.0 mi SSE 10.4 mph - N/A   Scattered Clouds
5:35 PM 84.0 °F 84.7 °F 62.6 °F 48% 30.17 in 10.0 mi SSE 6.9 mph - N/A   Scattered Clouds
5:55 PM 83.7 °F 83.8 °F 60.4 °F 45% 30.16 in 10.0 mi SSE 6.9 mph - N/A   Scattered Clouds
6:15 PM 83.3 °F 83.5 °F 60.6 °F 46% 30.16 in 10.0 mi SE 9.2 mph - N/A   Clear
6:35 PM 82.6 °F 83.1 °F 61.2 °F 48% 30.16 in 10.0 mi South 5.8 mph - N/A   Clear
6:55 PM 82.4 °F 82.6 °F 59.7 °F 46% 30.16 in 10.0 mi SSE 9.2 mph - N/A   Clear
7:15 PM 81.5 °F 82.1 °F 60.6 °F 49% 30.16 in 10.0 mi SSE 5.8 mph - N/A   Clear
7:35 PM 79.3 °F - 63.9 °F 59% 30.17 in 10.0 mi SE 4.6 mph - N/A   Mostly Cloudy
7:55 PM 78.3 °F - 63.7 °F 61% 30.17 in 10.0 mi SE 4.6 mph - N/A   Overcast
8:15 PM 76.8 °F - 63.9 °F 64% 30.17 in 10.0 mi SE 6.9 mph - N/A   Mostly Cloudy
8:35 PM 76.1 °F - 63.9 °F 66% 30.17 in 10.0 mi SE 6.9 mph - N/A   Mostly Cloudy
8:55 PM 75.2 °F - 64.2 °F 69% 30.18 in 10.0 mi SE 5.8 mph - N/A   Scattered Clouds
9:15 PM 74.3 °F - 64.6 °F 72% 30.18 in 10.0 mi SSE 6.9 mph - N/A   Scattered Clouds
9:35 PM 74.5 °F - 64.4 °F 71% 30.18 in 10.0 mi SSE 8.1 mph - N/A   Clear
9:55 PM 74.7 °F - 63.3 °F 68% 30.18 in 10.0 mi SSE 9.2 mph - N/A   Clear
10:15 PM 74.8 °F - 61.9 °F 64% 30.19 in 10.0 mi SSE 9.2 mph - N/A   Clear
10:35 PM 74.3 °F - 61.3 °F 64% 30.19 in 10.0 mi SSE 8.1 mph - N/A   Clear
10:55 PM 73.8 °F - 61.2 °F 65% 30.19 in 10.0 mi SSE 8.1 mph - N/A   Clear
11:15 PM 73.2 °F - 61.0 °F 65% 30.20 in 10.0 mi South 6.9 mph - N/A   Clear
11:35 PM 72.5 °F - 60.8 °F 67% 30.20 in 10.0 mi South 5.8 mph - N/A   Clear
11:55 PM 72.0 °F - 61.0 °F 68% 30.21 in 10.0 mi South 5.8 mph - N/A   Clear